Simultaneous Nadir Overpasses (SNOs) Predictions

Prediction of SNOs between GOES-17 and TERRA Satellite Orbit:

Table of predicted SNOs for the next 14.0 days since TLE Epoch: 11/12/2022
Index Date Time (GOES-17) GOES-17 Lat,Lon TERRA Lat,Lon Distance(km) Time Diff (sec)
1 11/13/2022 07:12:28 0.03,-137.33 0.50,-135.14 248.69 80
2 11/13/2022 19:32:48 -0.03,-137.34 0.56,-140.08 312.51 80
3 11/15/2022 19:19:47 -0.02,-137.32 -0.22,-136.29 117.37 80
4 11/16/2022 07:40:18 0.02,-137.31 -0.80,-141.28 449.96 80
5 11/18/2022 07:24:37 0.01,-137.30 0.00,-137.48 20.71 80
6 11/20/2022 07:06:15 0.01,-137.28 0.76,-133.68 408.56 80
7 11/20/2022 19:26:37 -0.01,-137.28 0.24,-138.64 153.26 80
8 11/22/2022 19:13:35 -0.01,-137.25 -0.53,-134.84 274.97 80
9 11/23/2022 07:34:05 0.01,-137.24 -0.51,-139.82 292.64 80
10 11/25/2022 07:15:42 -0.00,-137.19 0.23,-136.01 134.43 80
11 11/25/2022 19:36:04 0.00,-137.19 0.78,-140.96 428.24 80
